Wind_Speed
35 35 35 35 35 36 36 37 38 39 40 41 42 43 43 43 44 45 46 46 45 45 45 45 44 44 43 43 44 44 44 45 44 44 43 42 41 40 39 37 36 34 32
36 36 36 38 39 40 42 43 43 44 44 45 46 47 48 49 50 50 51 52 52 52 52 52 51 51 50 50 49 49 49 49 49 48 48 47 46 44 42 41 39 37 35
37 38 38 39 41 43 45 47 48 49 49 50 51 51 52 54 54 55 55 56 57 58 58 58 57 56 55 55 55 55 55 54 54 53 52 51 51 49 47 44 42 40 38
40 40 41 43 44 46 48 50 51 52 53 54 54 55 56 57 59 60 61 62 63 63 64 64 64 62 61 60 59 59 60 59 59 58 57 56 55 53 52 49 46 43 41
44 44 46 47 49 50 51 53 54 55 56 57 59 60 61 63 64 66 67 69 70 72 72 73 73 72 71 69 66 64 63 63 63 62 62 61 60 58 56 54 51 48 44
48 49 50 50 51 52 53 55 57 58 60 62 64 65 67 68 70 72 74 75 77 79 80 80 80 80 79 78 76 73 71 68 67 66 66 65 64 62 60 58 56 53 48
52 53 53 53 54 55 57 59 61 62 65 68 70 72 73 74 76 78 80 81 82 84 84 84 83 82 81 81 81 79 77 74 71 70 69 68 67 65 64 62 60 57 53
52 55 56 55 57 59 61 63 66 69 71 73 76 78 80 80 81 82 83 83 82 82 80 79 77 76 76 76 77 77 76 73 72 71 72 72 71 69 67 65 63 61 57
56 59 61 62 63 64 66 68 73 76 77 79 81 84 85 85 83 79 76 74 71 69 68 67 67 67 67 68 68 68 68 70 69 70 71 73 74 73 72 69 66 65 61
62 65 67 68 69 71 72 74 77 80 82 82 82 83 82 80 75 69 62 59 58 58 58 59 60 60 61 61 62 61 62 63 65 65 67 70 74 76 76 74 71 69 66
68 70 72 74 75 77 79 80 82 82 82 81 79 74 69 64 61 59 54 51 51 51 52 53 55 55 56 57 58 59 60 60 60 61 61 64 67 72 76 77 75 73 70
71 74 77 79 81 82 83 83 82 79 76 72 65 59 56 54 53 53 51 48 46 45 45 46 46 47 49 51 53 55 56 57 57 57 59 61 62 64 67 72 75 76 74
75 78 80 82 83 82 81 77 72 67 61 56 52 50 50 49 48 47 46 44 42 40 40 39 39 40 42 45 49 51 52 53 53 54 55 56 58 58 59 62 68 73 75
77 78 78 77 75 70 65 60 54 51 48 46 46 46 45 44 44 43 42 41 39 37 36 34 34 35 37 39 42 44 46 47 46 47 48 50 51 52 54 56 60 65 71
70 67 64 59 55 51 48 45 43 42 42 43 42 41 41 41 41 40 38 37 36 33 30 28 29 31 34 35 35 37 38 38 38 37 38 40 42 44 47 50 53 59 65
54 50 45 42 40 39 38 38 39 39 39 39 39 39 39 38 36 35 34 33 32 31 28 25 26 28 31 31 31 30 30 29 29 30 30 32 34 37 40 43 46 50 58
42 40 38 36 35 35 35 36 36 36 36 36 36 35 34 33 32 31 30 28 28 27 26 23 24 25 26 27 25 23 21 20 21 22 23 24 26 28 31 34 38 42 49
37 37 36 36 35 35 35 35 35 35 34 34 33 31 30 29 28 26 24 24 23 25 24 22 22 22 22 20 18 16 15 14 15 16 17 19 20 21 23 25 28 32 39
38 38 38 38 37 36 37 37 37 36 35 33 32 29 28 26 24 22 20 20 21 23 23 21 20 19 18 16 14 12 11 11 12 14 15 15 16 16 16 18 21 25 32
39 40 40 40 40 40 40 40 38 37 35 34 31 29 26 23 21 19 19 20 21 21 20 19 17 16 14 12 10 9 9 9 10 11 12 14 15 13 12 15 17 22 29
40 42 42 43 42 41 41 39 37 37 35 33 31 28 25 22 20 18 18 19 20 19 17 15 13 11 10 10 9 8 7 7 8 10 11 13 13 9 5 11 16 21 27
42 43 43 42 41 40 39 38 37 35 34 32 30 27 25 22 19 18 18 18 17 15 13 11 9 8 9 9 9 8 7 6 7 8 8 9 9 4 6 12 16 21 26
42 43 42 41 39 38 37 36 35 33 31 30 28 26 24 21 18 17 16 15 14 12 10 7 6 7 9 9 8 7 5 4 4 4 4 5 4 5 13 16 20 23 26
43 42 41 39 37 35 34 33 32 30 29 28 26 24 22 20 18 15 14 13 11 8 6 4 5 7 9 10 8 7 4 2 0 2 3 5 7 14 20 22 23 24 26
42 41 39 37 36 34 31 29 28 27 26 25 24 22 20 18 16 14 12 10 7 4 3 4 6 8 10 11 9 7 5 4 4 5 6 8 13 19 23 25 26 26 27
42 40 39 37 35 33 30 27 24 23 22 22 21 20 18 15 13 11 8 6 5 4 5 6 8 9 11 11 10 8 7 7 7 8 9 13 18 22 26 28 29 28 26
Wind_Direction
295 295 295 294 294 293 293 292 291 290 289 288 287 286 285 284 284 283 282 281 279 278 278 278 277 275 273 272 270 270 269 268 267 266 266 265 264 264 264 264 264 263 262
292 292 293 293 294 295 294 293 292 291 290 288 287 286 286 286 285 285 284 283 282 280 279 278 277 276 276 275 273 271 270 269 268 267 266 265 264 263 262 262 261 260 259
291 291 291 293 294 294 295 295 294 294 293 292 291 290 289 288 288 287 286 284 283 282 280 279 277 275 274 274 273 271 269 268 267 266 266 265 264 263 261 260 259 258 256
290 290 291 293 293 294 294 294 293 292 292 292 292 291 291 291 291 290 289 288 286 284 283 281 279 276 274 272 272 271 270 268 266 265 264 263 263 263 262 260 258 256 254
289 288 289 291 292 293 293 293 293 292 292 292 292 291 291 291 290 290 289 289 289 288 286 285 282 280 278 275 272 270 268 267 266 264 262 261 260 260 260 260 258 256 254
291 290 290 291 291 292 292 292 292 291 291 291 291 291 290 290 289 289 288 288 287 286 285 284 283 281 279 278 275 273 270 267 265 263 261 259 257 256 256 257 257 256 254
292 291 290 291 292 293 293 293 292 292 291 291 291 290 289 289 289 289 288 287 286 285 284 282 281 280 279 277 275 273 271 269 266 262 259 258 256 254 252 252 253 253 252
292 292 292 292 293 293 293 293 293 292 292 292 292 291 290 290 289 289 288 286 285 283 282 280 279 277 275 274 273 272 270 267 264 261 258 256 255 252 250 249 248 248 248
292 293 293 294 294 294 294 294 294 294 294 293 294 294 293 292 290 288 287 285 283 281 279 278 276 276 275 273 272 271 270 266 263 260 258 254 252 251 248 246 245 244 244
294 294 294 294 294 294 294 293 293 294 294 294 294 294 293 293 292 290 287 284 281 279 277 274 273 272 272 271 271 270 268 266 264 262 260 256 251 248 246 244 242 241 240
294 294 294 294 294 293 293 293 294 294 294 294 294 293 292 292 291 291 289 285 282 281 278 276 274 272 270 269 267 267 266 265 264 263 261 259 256 251 246 243 240 238 237
293 293 293 293 293 293 293 293 293 293 293 294 293 293 292 292 292 291 290 288 285 283 281 279 276 273 270 267 266 265 265 265 264 263 261 260 258 255 250 245 240 236 234
293 293 293 293 292 292 292 292 292 292 292 292 293 292 292 293 292 292 291 289 287 285 283 281 278 275 271 269 266 265 265 265 264 263 261 260 259 257 253 247 242 237 233
295 294 294 293 293 292 292 293 293 292 293 293 293 293 293 292 292 292 291 290 289 286 284 282 278 276 273 271 270 268 267 266 266 265 263 261 259 257 253 248 243 237 233
300 299 298 297 296 296 295 295 294 294 294 294 293 293 293 292 291 291 290 290 290 289 286 283 279 276 274 275 275 273 269 267 266 267 265 263 260 257 253 249 244 237 231
305 305 305 303 302 300 299 297 296 296 295 295 294 294 294 293 291 290 289 290 290 291 290 284 279 277 276 276 278 276 272 269 268 267 268 266 262 258 253 248 244 238 230
309 309 308 306 304 302 300 300 299 298 298 298 298 298 296 295 294 293 290 289 290 292 293 290 283 281 279 277 276 275 274 272 271 270 270 268 264 259 255 249 243 236 228
313 312 309 307 305 302 301 300 300 299 300 301 301 301 299 298 297 295 292 290 291 294 294 292 285 281 278 276 275 270 272 272 271 272 273 273 271 266 257 248 239 230 221
316 314 311 308 305 302 300 298 298 298 297 299 300 300 299 298 297 296 293 292 294 295 295 292 284 278 273 271 267 262 266 269 275 279 284 288 287 274 259 241 228 218 210
321 318 315 311 307 303 300 298 296 295 295 295 296 296 295 295 295 293 292 293 296 297 295 292 283 273 265 258 250 253 259 269 281 294 299 302 301 286 255 224 209 200 196
326 323 318 314 310 306 302 298 294 291 291 290 292 293 291 290 291 290 291 294 297 297 295 290 277 261 248 237 235 240 246 264 286 302 309 316 316 312 243 198 186 181 182
330 326 322 318 315 311 306 300 294 290 287 286 285 287 287 285 287 288 290 295 298 297 293 285 263 239 225 218 221 224 236 265 291 307 318 331 342 6 127 148 161 162 168
332 329 326 322 320 317 312 307 299 291 287 284 282 281 281 281 283 285 290 294 295 293 290 272 233 216 205 206 208 209 228 272 300 320 340 1 34 121 144 144 143 145 150
332 330 327 325 323 321 317 312 305 298 291 285 281 278 276 276 277 281 287 290 289 283 276 239 208 194 192 192 194 195 203 223 220 74 58 70 112 138 144 142 139 142 145
332 331 328 326 324 323 321 318 312 305 298 290 284 278 272 271 271 275 280 279 270 253 223 189 177 176 174 175 175 170 169 165 142 119 102 112 134 144 148 148 147 147 151
332 331 329 327 326 324 322 320 316 311 304 298 290 280 268 264 260 266 266 252 225 206 179 164 161 162 165 166 166 162 156 148 135 124 120 129 138 144 148 150 152 155 157
Height
5838 5837 5835 5833 5832 5831 5829 5827 5825 5824 5823 5821 5819 5818 5817 5815 5814 5813 5811 5811 5812 5811 5810 5810 5809 5809 5809 5808 5808 5809 5810 5810 5811 5812 5813 5814 5815 5817 5818 5820 5822 5823 5825
5832 5830 5828 5826 5824 5822 5820 5818 5816 5814 5813 5811 5809 5807 5806 5804 5803 5802 5800 5799 5798 5799 5798 5798 5797 5797 5797 5797 5797 5798 5798 5799 5800 5801 5802 5803 5804 5806 5809 5811 5813 5814 5816
5826 5824 5822 5820 5817 5814 5812 5809 5806 5804 5801 5799 5797 5794 5792 5791 5789 5787 5786 5785 5783 5782 5782 5782 5783 5783 5783 5784 5784 5784 5785 5787 5788 5789 5790 5791 5792 5794 5797 5800 5802 5805 5807
5818 5816 5814 5811 5809 5806 5803 5800 5796 5793 5790 5786 5784 5781 5778 5776 5774 5771 5769 5767 5766 5765 5764 5763 5764 5765 5766 5768 5769 5769 5770 5772 5773 5775 5776 5778 5780 5782 5784 5787 5791 5794 5797
5810 5807 5804 5802 5799 5796 5792 5788 5784 5781 5777 5774 5771 5768 5765 5762 5759 5756 5753 5751 5748 5746 5744 5743 5742 5743 5745 5747 5750 5752 5754 5755 5756 5758 5760 5763 5766 5769 5771 5774 5778 5781 5785
5802 5798 5794 5792 5788 5785 5781 5776 5772 5769 5764 5760 5756 5754 5751 5748 5745 5742 5738 5735 5732 5728 5725 5723 5721 5721 5722 5724 5726 5730 5733 5736 5738 5740 5742 5745 5749 5753 5757 5760 5764 5768 5772
5792 5788 5784 5780 5776 5772 5768 5763 5759 5756 5751 5745 5740 5737 5734 5731 5727 5723 5719 5715 5712 5707 5704 5701 5700 5699 5699 5700 5702 5705 5709 5712 5715 5718 5721 5725 5730 5735 5740 5745 5749 5754 5759
5781 5776 5773 5768 5764 5760 5755 5749 5744 5739 5735 5729 5723 5717 5713 5712 5709 5703 5699 5695 5690 5685 5681 5679 5677 5676 5677 5678 5678 5680 5683 5687 5691 5694 5699 5704 5709 5716 5722 5727 5733 5738 5743
5769 5764 5759 5754 5749 5745 5740 5734 5728 5721 5716 5711 5704 5696 5689 5686 5684 5682 5678 5674 5668 5663 5661 5658 5657 5656 5656 5656 5657 5659 5659 5662 5666 5669 5674 5680 5686 5693 5701 5708 5715 5721 5728
5754 5748 5742 5737 5733 5728 5723 5717 5711 5704 5697 5691 5686 5678 5669 5663 5657 5656 5659 5653 5648 5645 5643 5641 5639 5639 5639 5638 5638 5639 5639 5640 5643 5646 5650 5655 5661 5669 5677 5686 5694 5703 5710
5740 5733 5726 5720 5715 5709 5703 5698 5692 5685 5678 5671 5665 5659 5652 5646 5640 5635 5637 5636 5632 5629 5626 5624 5623 5623 5622 5621 5621 5620 5620 5622 5625 5627 5629 5632 5637 5644 5653 5662 5672 5682 5691
5726 5718 5710 5703 5697 5690 5684 5678 5672 5665 5658 5652 5646 5641 5636 5631 5627 5622 5619 5618 5616 5613 5610 5608 5607 5607 5606 5605 5604 5603 5604 5606 5608 5609 5611 5613 5616 5621 5628 5637 5647 5659 5670
5711 5702 5693 5685 5677 5670 5663 5657 5652 5647 5642 5636 5632 5627 5622 5618 5614 5609 5606 5603 5601 5600 5597 5596 5594 5593 5591 5590 5589 5589 5589 5590 5591 5592 5594 5596 5598 5603 5608 5615 5624 5635 5648
5691 5682 5673 5665 5657 5650 5644 5640 5635 5632 5628 5623 5619 5615 5610 5606 5602 5598 5594 5591 5588 5587 5586 5585 5583 5581 5578 5577 5576 5575 5575 5575 5576 5577 5578 5580 5582 5585 5589 5595 5602 5612 5626
5671 5662 5653 5646 5640 5634 5630 5626 5623 5619 5616 5611 5607 5603 5599 5595 5591 5587 5584 5580 5577 5576 5576 5575 5573 5570 5568 5566 5565 5564 5563 5563 5564 5565 5566 5567 5568 5570 5573 5577 5583 5592 5604
5656 5647 5640 5634 5629 5624 5620 5616 5613 5609 5605 5601 5597 5593 5588 5584 5581 5577 5574 5571 5568 5566 5566 5566 5563 5561 5559 5557 5556 5554 5553 5553 5555 5555 5556 5556 5556 5557 5559 5562 5567 5574 5585
5646 5639 5632 5627 5621 5617 5612 5608 5603 5599 5596 5591 5587 5583 5579 5575 5571 5568 5566 5563 5561 5558 5557 5557 5555 5553 5551 5549 5548 5547 5547 5547 5548 5548 5548 5548 5547 5547 5548 5550 5554 5560 5570
5639 5632 5626 5620 5615 5610 5605 5600 5595 5591 5587 5583 5578 5574 5570 5567 5564 5560 5558 5556 5554 5552 5550 5549 5548 5546 5544 5543 5543 5543 5543 5543 5543 5543 5543 5542 5541 5540 5540 5541 5544 5550 5558
5632 5625 5619 5613 5607 5602 5597 5591 5587 5582 5578 5574 5571 5567 5564 5560 5557 5555 5552 5551 5549 5546 5544 5543 5542 5540 5539 5539 5539 5539 5540 5540 5540 5540 5539 5537 5535 5534 5533 5534 5538 5543 5551
5626 5618 5611 5605 5599 5593 5587 5582 5577 5573 5569 5566 5563 5560 5557 5554 5552 5550 5548 5546 5543 5541 5539 5537 5536 5535 5535 5535 5536 5537 5538 5538 5538 5538 5536 5534 5531 5529 5528 5530 5534 5540 5548
5619 5611 5604 5596 5590 5583 5577 5572 5568 5564 5560 5558 5555 5553 5550 5548 5546 5544 5543 5541 5538 5536 5534 5532 5531 5531 5532 5533 5534 5536 5537 5537 5537 5537 5535 5532 5529 5526 5526 5528 5533 5540 5548
5611 5603 5595 5587 5580 5573 5566 5561 5557 5553 5550 5549 5547 5545 5543 5542 5541 5539 5538 5536 5534 5532 5530 5529 5529 5529 5530 5532 5533 5535 5536 5537 5537 5537 5535 5533 5530 5529 5528 5530 5535 5543 5551
5604 5595 5587 5579 5571 5565 5557 5551 5546 5543 5541 5539 5538 5537 5536 5536 5535 5534 5533 5532 5530 5529 5528 5527 5527 5528 5529 5531 5533 5535 5536 5537 5537 5537 5536 5535 5533 5533 5535 5537 5542 5548 5555
5598 5588 5580 5571 5564 5557 5550 5544 5538 5534 5532 5530 5529 5529 5529 5529 5529 5529 5529 5528 5527 5526 5525 5525 5526 5528 5529 5531 5533 5535 5537 5538 5538 5539 5539 5538 5538 5539 5543 5546 5550 5556 5563
5591 5582 5573 5565 5557 5550 5543 5537 5532 5527 5525 5522 5521 5521 5522 5523 5524 5524 5525 5524 5524 5524 5525 5525 5526 5528 5529 5532 5534 5536 5537 5539 5540 5541 5541 5542 5543 5545 5549 5554 5559 5565 5572
5584 5575 5566 5558 5551 5544 5538 5532 5527 5523 5519 5517 5515 5515 5516 5518 5519 5521 5521 5522 5522 5523 5524 5526 5527 5529 5530 5533 5535 5537 5539 5540 5542 5543 5544 5545 5548 5552 5556 5561 5567 5573 5580